Columbia Owens, SC

5:10 PM EST on November 13, 2019 (GMT -0500)
Columbia Owens Downtown

Weather History for KCUB - September, 2019

Change the Weather History Date:

Friday, September 13, 2019

  Actual Average Record
Temperature  
Mean Temperature 85 °F 77 °F  
Max Temperature 96 °F 87 °F 96 °F (2019)
Min Temperature 74 °F 67 °F 59 °F (2015)
Degree Days  
Heating Degree Days 0 0  
Month to date heating degree days 0 0  
Since 1 July heating degree days 0 0  
Cooling Degree Days 20 12  
Month to date cooling degree days 244 171  
Year to date cooling degree days 2367 1989  
Growing Degree Days 33 (Base 50)    
Moisture  
Dew Point 71 °F    
Average Humidity 74    
Maximum Humidity 88    
Minimum Humidity 46    
Precipitation  
Precipitation 0.17 in 0.15 in 2.32 in (2006)
Month to date precipitation 0.78 1.83  
Year to date precipitation 23.96 33.68  
Sea Level Pressure  
Sea Level Pressure 30.16 in    
Wind  
Wind Speed 2 mph (South)    
Max Wind Speed 15 mph    
Max Gust Speed 25 mph    
Visibility 9 miles    
Events Rain , Thunderstorm    
T = Trace of Precipitation, MM = Missing Value Source: NWS Daily Summary

Daily Weather History Graph

Daily Weather History Graph

Search for Another Location

Airport or City:

Astronomy

Sep. 13, 2019 Rise Set
Actual Time 7:05 AM EDT 7:33 PM EDT
Civil Twilight 6:40 AM EDT 7:58 PM EDT
Nautical Twilight 6:11 AM EDT 8:28 PM EDT
Astronomical Twilight 5:41 AM EDT 8:58 PM EDT
Moon 7:43 PM EDT 6:26 AM EDT
Length of Visible Light 13h 18m
Length of Day
12h 27m
Full, 100% of the Moon is Illuminated
Sep 13
Full
Sep 14
Full
Sep 21
Last Quarter
Sep 28
New
Oct 5
First Quarter

Hourly Weather History & Observations

Time (EDT) Temp. Heat Index Dew Point Humidity Pressure Visibility Wind Dir Wind Speed Gust Speed Precip Events Conditions
12:53 AM 80.1 °F 83.6 °F 71.1 °F 74% 30.11 in 10.0 mi Calm Calm - N/A   Clear
1:53 AM 79.0 °F - 70.0 °F 74% 30.10 in 10.0 mi Calm Calm - N/A   Clear
2:53 AM 77.0 °F - 71.1 °F 82% 30.10 in 10.0 mi Calm Calm - N/A   Clear
3:53 AM 75.9 °F - 71.1 °F 85% 30.10 in 10.0 mi Calm Calm - N/A   Clear
4:53 AM 75.0 °F - 70.0 °F 84% 30.12 in 10.0 mi Calm Calm - N/A   Clear
5:53 AM 75.0 °F - 70.0 °F 84% 30.13 in 10.0 mi Calm Calm - N/A   Clear
6:53 AM 73.9 °F - 70.0 °F 87% 30.14 in 10.0 mi Calm Calm - N/A   Clear
7:53 AM 75.0 °F - 71.1 °F 87% 30.17 in 10.0 mi Calm Calm - N/A   Clear
8:53 AM 79.0 °F - 70.0 °F 74% 30.17 in 10.0 mi Calm Calm - N/A   Clear
9:53 AM 84.0 °F 89.0 °F 71.1 °F 65% 30.19 in 10.0 mi Calm Calm - N/A   Clear
10:53 AM 86.0 °F 90.7 °F 70.0 °F 59% 30.19 in 10.0 mi Calm Calm - N/A   Clear
11:53 AM 90.0 °F 96.4 °F 71.1 °F 54% 30.18 in 10.0 mi Variable 3.5 mph - N/A   Clear
12:53 PM 91.9 °F 97.4 °F 70.0 °F 48% 30.17 in 10.0 mi SSW 5.8 mph - N/A   Partly Cloudy
1:53 PM 93.0 °F 99.0 °F 70.0 °F 47% 30.15 in 10.0 mi South 8.1 mph - N/A   Partly Cloudy
2:53 PM 93.9 °F 100.3 °F 70.0 °F 46% 30.12 in 10.0 mi North - - N/A   Scattered Clouds
3:53 PM 93.9 °F 99.1 °F 69.1 °F 44% 30.10 in 10.0 mi Variable 5.8 mph - N/A   Partly Cloudy
4:53 PM 93.9 °F 100.3 °F 70.0 °F 46% 30.11 in 10.0 mi Variable 5.8 mph - N/A   Partly Cloudy
5:16 PM 93.0 °F 99.0 °F 70.0 °F 47% 30.12 in 10.0 mi Calm Calm - N/A Thunderstorm Mostly Cloudy
5:44 PM 79.0 °F - 72.0 °F 79% 30.16 in 2.5 mi Variable 4.6 mph 24.2 mph 0.07 in Rain , Thunderstorm Thunderstorms and Rain
5:50 PM 77.0 °F - 71.6 °F 83% 30.17 in 1.0 mi Variable 5.8 mph - 0.14 in Rain , Thunderstorm Heavy Thunderstorms and Rain
5:53 PM 75.9 °F - 72.0 °F 87% 30.17 in 1.0 mi Variable 5.8 mph - 0.17 in Rain , Thunderstorm Heavy Thunderstorms and Rain
5:59 PM 75.9 °F - 72.0 °F 87% 30.19 in 2.0 mi Variable 3.5 mph - 0.00 in Rain , Thunderstorm Light Thunderstorms and Rain
6:06 PM 75.9 °F - 72.0 °F 87% 30.20 in 10.0 mi SW 4.6 mph - 0.00 in Thunderstorm Thunderstorm
6:35 PM 77.0 °F - 72.0 °F 84% 30.19 in 10.0 mi Calm Calm - 0.00 in Thunderstorm Mostly Cloudy
6:53 PM 77.0 °F - 73.0 °F 88% 30.19 in 10.0 mi ENE 3.5 mph - 0.00 in   Partly Cloudy
7:53 PM 77.0 °F - 73.0 °F 88% 30.21 in 10.0 mi Calm Calm - N/A   Scattered Clouds
8:53 PM 77.0 °F - 71.1 °F 82% 30.20 in 10.0 mi Calm Calm - N/A   Clear
9:53 PM 75.9 °F - 72.0 °F 87% 30.21 in 10.0 mi Calm Calm - 0.00 in   Scattered Clouds
10:53 PM 75.0 °F - 71.1 °F 87% 30.23 in 10.0 mi Calm Calm - N/A   Clear
11:53 PM 75.9 °F - 71.1 °F 85% 30.24 in 10.0 mi Calm Calm - N/A   Mostly Cloudy